Regional Weather Roundup
Issued by NWS

Home | Current Version | Previous Version | Text Only | Print | Product List | Glossary Off
Versions: 1 2 3 4 5 6 7 8 9 10 11 12 13 14 15 16 17 18 19 20 21 22 23 24 25 26 27 28 29 30 31 32 33 34 35 36 37 38 39 40 41 42 43 44 45 46 47 48 49 50

000
ASUS43 KLMK 041710
RWRKY
KENTUCKY REGIONAL WEATHER ROUNDUP
NATIONAL WEATHER SERVICE LOUISVILLE KY
100 PM EDT TUE AUG 04 2015

NOTE "FAIR" INDICATES FEW OR NO CLOUDS BELOW 12,000 FEET
WITH NO SIGNIFICANT WEATHER AND/OR OBSTRUCTIONS TO VISIBILITY.

KYZ001>023-026-027-061>063-070>075-041800-
WESTERN AND SOUTH CENTRAL KENTUCKY

CITY           SKY/WX    TMP DP  RH WIND       PRES   REMARKS
PADUCAH        SUNNY     92  73  53 W7        29.98F HX 100
HENDERSON      SUNNY     88  73  62 CALM      29.97F HX  96
OWENSBORO      SUNNY     90  75  61 SW6       29.99F HX 100
HOPKINSVILLE   SUNNY     91  72  54 W10       30.00S HX  98
BOWLING GREEN  CLOUDY    90  72  55 SW10      30.01S HX  97
GLASGOW        MOSUNNY  N/A N/A N/A W6        30.02S
$$

KYZ024-025-028>034-038-045-046-053-041800-
NORTH CENTRAL KENTUCKY

CITY           SKY/WX    TMP DP  RH WIND       PRES   REMARKS
LOUISVILLE/SDF PTSUNNY   86  66  51 W10       29.99F
LOUISVILLE/LOU PTSUNNY   85  66  53 SW6       30.00S
FORT KNOX      PTSUNNY   86  68  54 W9        30.00F
$$

KYZ035>037-039>044-047>052-055>060-089>105-041800-
NORTHEAST KENTUCKY

CITY           SKY/WX    TMP DP  RH WIND       PRES   REMARKS
LEXINGTON      CLOUDY    85  68  56 W12       30.02S
COVINGTON      PTSUNNY   83  60  45 W12       30.00S
FRANKFORT      CLOUDY    83  66  56 SW9       30.01R
$$

KYZ054-064>069-076>088-106>120-041800-
SOUTHEAST KENTUCKY

CITY           SKY/WX    TMP DP  RH WIND       PRES   REMARKS
JACKSON        PTSUNNY   84  72  67 CALM      30.05S
LONDON         MOSUNNY   87  69  54 W12       30.04F HX  91
SOMERSET       CLOUDY    86  70  58 W9        30.04F HX  90
MIDDLESBORO    PTSUNNY   90  68  48 W5        30.05F HX  93
MONTICELLO     MOSUNNY   89  75  63 NW8       30.06F HX  98
$$



USA.gov is the U.S. government's official web portal to all federal, state and local government web resources and services.